Regional Weather Roundup
Issued by NWS

Home | Current Version | Previous Version | Graphics & Text | Print | Product List | Glossary On
Versions: 1 2 3 4 5 6 7 8 9 10 11 12 13 14 15 16 17 18 19 20 21 22 23 24 25 26 27 28 29 30 31 32 33 34 35 36 37 38 39 40 41 42 43 44 45 46 47 48 49 50
000
ASUS43 KBIS 272220
RWRND

NORTH DAKOTA REGIONAL WEATHER ROUNDUP
NATIONAL WEATHER SERVICE BISMARCK ND
400 PM CST TUE JAN 27 2015

NOTE: "FAIR" INDICATES FEW OR NO CLOUDS BELOW 12,000 FEET WITH NO
SIGNIFICANT WEATHER AND/OR OBSTRUCTIONS TO VISIBILITY.


NDZ001>003-009>011-017-272300-
NORTHWEST NORTH DAKOTA

CITY           SKY/WX    TMP DP  RH WIND       PRES   REMARKS
WILLISTON      CLOUDY    50  37  61 CALM      29.79S
MINOT          PTSUNNY   47  37  68 W5        29.78R
MINOT AFB      PTSUNNY   42  42  99 SE2       29.78R
$$

NDZ018>021-031>035-040>046-272300-
SOUTHWEST NORTH DAKOTA

CITY           SKY/WX    TMP DP  RH WIND       PRES   REMARKS
BISMARCK       MOSUNNY   51  32  48 S5        29.83S
DICKINSON      MOSUNNY   55  36  48 SW6       29.80S
GARRISON         N/A     48  39  71 SW5       29.79S
HETTINGER ARPT MOSUNNY   63  34  33 W7        29.84F
$$

NDZ004>008-012>016-024-026-027-054-272300-
NORTHEAST NORTH DAKOTA

CITY           SKY/WX    TMP DP  RH WIND       PRES   REMARKS
GRAND FORKS    CLOUDY    32  30  92 S14       29.94F
GRND FRKS AFB  CLOUDY    32  29  89 S20       29.94F WCI  20
DEVILS LAKE    MOSUNNY   37  32  81 S13       29.84F
$$

NDZ022-023-025-028>030-036>039-047>053-272300-
SOUTHEAST NORTH DAKOTA

CITY           SKY/WX    TMP DP  RH WIND       PRES   REMARKS
FARGO          CLOUDY    32  29  88 SE18      29.97F
JAMESTOWN      MOSUNNY   38  34  85 SE13      29.86F
$$



USA.gov is the U.S. government's official web portal to all federal, state and local government web resources and services.